AFV361 FQMA-FMCZ

Flight info

Callsign AFV361
Flight time 3h 1m
Altitude 35000
Route UVAPU1A AXIVO UM310 VBR UW10 VNP UT547 VNC UT548 SOLAL UN305 HAI
Aircraft B77L/H-SDE1E2E3FGHIJ2J3J4J5M1RWXY/LB1D1

Departure

Time 2026-04-20 09:13
Airport Maputo Airport (FQMA)

Arrival

Time 2026-04-20 12:15
Airport Dzaoudzi Pamandzi International Airport (FMCZ)
Time Latitude Longitude Altitude Speed Heading
2026-04-20 08:01 -25.92338 32.57402 158 ft 0 kts 119°
2026-04-20 09:05 -25.92332 32.57390 159 ft 2 kts 119°
2026-04-20 09:05 -25.92321 32.57373 159 ft 3 kts 137°
2026-04-20 09:05 -25.92304 32.57361 159 ft 3 kts 161°
2026-04-20 09:06 -25.92284 32.57358 159 ft 3 kts 185°
2026-04-20 09:06 -25.92264 32.57364 159 ft 3 kts 206°
2026-04-20 09:06 -25.92261 32.57366 159 ft 0 kts 208°
2026-04-20 09:09 -25.92268 32.57362 159 ft 5 kts 208°
2026-04-20 09:09 -25.92326 32.57322 159 ft 13 kts 211°
2026-04-20 09:09 -25.92409 32.57267 159 ft 11 kts 211°
2026-04-20 09:09 -25.92461 32.57233 159 ft 6 kts 209°
2026-04-20 09:10 -25.92490 32.57215 159 ft 3 kts 209°
2026-04-20 09:10 -25.92530 32.57192 159 ft 7 kts 206°
2026-04-20 09:10 -25.92545 32.57172 159 ft 4 kts 251°
2026-04-20 09:10 -25.92541 32.57145 159 ft 5 kts 295°
2026-04-20 09:11 -25.92526 32.57110 159 ft 7 kts 296°
2026-04-20 09:11 -25.92511 32.57076 159 ft 3 kts 296°
2026-04-20 09:11 -25.92494 32.57040 159 ft 6 kts 304°
2026-04-20 09:11 -25.92471 32.57028 159 ft 3 kts
2026-04-20 09:12 -25.92451 32.57036 159 ft 0 kts 26°
2026-04-20 09:12 -25.92443 32.57040 159 ft 7 kts 28°
2026-04-20 09:12 -25.92287 32.57135 159 ft 56 kts 30°
2026-04-20 09:13 -25.91715 32.57487 159 ft 134 kts 29°
2026-04-20 09:13 -25.90692 32.58113 293 ft 190 kts 29°
2026-04-20 09:13 -25.89488 32.58830 1093 ft 203 kts 28°
2026-04-20 09:13 -25.88189 32.59520 2251 ft 207 kts 23°
2026-04-20 09:14 -25.86835 32.60027 3138 ft 210 kts 17°
2026-04-20 09:14 -25.85364 32.60513 3581 ft 227 kts 14°
2026-04-20 09:14 -25.83790 32.61004 3999 ft 245 kts 13°
2026-04-20 09:14 -25.82037 32.61635 4230 ft 275 kts 16°
2026-04-20 09:15 -25.80219 32.62350 4916 ft 280 kts 16°
2026-04-20 09:15 -25.78339 32.63099 5582 ft 297 kts 15°
2026-04-20 09:15 -25.76290 32.63875 6074 ft 318 kts 15°
2026-04-20 09:15 -25.74113 32.64684 6482 ft 341 kts 15°
2026-04-20 09:16 -25.71841 32.65468 7350 ft 339 kts 14°
2026-04-20 09:16 -25.69708 32.66277 9043 ft 319 kts 16°
2026-04-20 09:16 -25.67649 32.67134 9683 ft 301 kts 17°
2026-04-20 09:16 -25.65772 32.67912 9981 ft 291 kts 16°
2026-04-20 09:17 -25.63852 32.68680 10001 ft 292 kts 16°
2026-04-20 09:17 -25.61890 32.69440 10187 ft 305 kts 15°
2026-04-20 09:17 -25.59853 32.70213 10692 ft 319 kts 15°
2026-04-20 09:17 -25.57657 32.71041 11098 ft 337 kts 15°
2026-04-20 09:18 -25.55390 32.71894 11491 ft 354 kts 15°
2026-04-20 09:18 -25.53029 32.72780 11976 ft 367 kts 15°
2026-04-20 09:18 -25.50557 32.73707 12576 ft 377 kts 15°
2026-04-20 09:18 -25.48054 32.74646 13244 ft 383 kts 15°
2026-04-20 09:19 -25.45513 32.75598 13945 ft 388 kts 15°
2026-04-20 09:19 -25.42936 32.76557 14643 ft 392 kts 15°
2026-04-20 09:19 -25.40345 32.77490 15333 ft 395 kts 14°
2026-04-20 09:19 -25.37700 32.78432 16008 ft 399 kts 15°
2026-04-20 09:20 -25.35049 32.79377 16656 ft 402 kts 15°
2026-04-20 09:20 -25.32372 32.80332 17281 ft 405 kts 15°
2026-04-20 09:20 -25.29697 32.81287 17794 ft 411 kts 15°
2026-04-20 09:20 -25.26955 32.82266 18404 ft 413 kts 15°
2026-04-20 09:21 -25.24220 32.83243 18971 ft 416 kts 15°
2026-04-20 09:21 -25.21437 32.84237 19579 ft 416 kts 14°
2026-04-20 09:21 -25.18751 32.85195 20502 ft 411 kts 14°
2026-04-20 09:21 -25.16008 32.86173 20803 ft 421 kts 14°
2026-04-20 09:22 -25.13196 32.87176 21075 ft 430 kts 14°
2026-04-20 09:22 -25.10289 32.88216 21256 ft 442 kts 14°
2026-04-20 09:22 -25.07355 32.89268 21640 ft 448 kts 14°
2026-04-20 09:22 -25.04358 32.90339 22066 ft 453 kts 14°
2026-04-20 09:23 -25.01369 32.91406 22613 ft 454 kts 14°
2026-04-20 09:23 -24.98335 32.92488 23037 ft 459 kts 14°
2026-04-20 09:23 -24.95300 32.93569 23414 ft 464 kts 14°
2026-04-20 09:23 -24.92201 32.94672 23722 ft 470 kts 14°
2026-04-20 09:24 -24.89073 32.95785 24207 ft 472 kts 14°
2026-04-20 09:24 -24.85950 32.96901 24678 ft 473 kts 14°
2026-04-20 09:24 -24.82852 32.98004 25124 ft 475 kts 13°
2026-04-20 09:24 -24.79654 32.99139 25497 ft 479 kts 13°
2026-04-20 09:25 -24.76507 33.00255 25757 ft 485 kts 14°
2026-04-20 09:25 -24.73269 33.01402 26092 ft 490 kts 14°
2026-04-20 09:25 -24.70021 33.02552 26457 ft 493 kts 13°
2026-04-20 09:25 -24.66761 33.03706 26994 ft 492 kts 13°
2026-04-20 09:26 -24.63495 33.04862 27320 ft 495 kts 13°
2026-04-20 09:26 -24.60218 33.06020 27733 ft 496 kts 13°
2026-04-20 09:26 -24.56942 33.07195 28299 ft 493 kts 14°
2026-04-20 09:26 -24.53712 33.08454 28604 ft 500 kts 15°
2026-04-20 09:27 -24.50424 33.09816 28835 ft 505 kts 16°
2026-04-20 09:27 -24.47144 33.11201 29219 ft 506 kts 16°
2026-04-20 09:27 -24.43840 33.12580 29595 ft 506 kts 15°
2026-04-20 09:27 -24.40557 33.13936 29800 ft 512 kts 15°
2026-04-20 09:28 -24.37190 33.15318 30108 ft 516 kts 15°
2026-04-20 09:28 -24.33816 33.16698 30281 ft 521 kts 15°
2026-04-20 09:28 -24.30421 33.18084 30693 ft 521 kts 15°
2026-04-20 09:28 -24.27015 33.19472 31158 ft 520 kts 15°
2026-04-20 09:29 -24.23620 33.20861 31665 ft 517 kts 18°
2026-04-20 09:29 -24.20270 33.22232 32258 ft 517 kts 18°
2026-04-20 09:29 -24.16868 33.23621 32364 ft 526 kts 18°
2026-04-20 09:30 -24.09914 33.26454 32725 ft 535 kts 16°
2026-04-20 09:30 -24.06443 33.27865 33256 ft 530 kts 22°
2026-04-20 09:30 -24.03049 33.29244 33932 ft 525 kts 17°
2026-04-20 09:30 -23.99613 33.30640 34247 ft 527 kts 17°
2026-04-20 09:31 -23.96185 33.32032 34626 ft 526 kts 14°
2026-04-20 09:31 -23.92760 33.33422 34932 ft 524 kts 14°
2026-04-20 09:31 -23.89355 33.34802 35001 ft 520 kts 17°
2026-04-20 09:32 -23.82533 33.37566 34991 ft 526 kts 17°
2026-04-20 09:32 -23.75637 33.40365 34994 ft 528 kts 16°
2026-04-20 09:33 -23.68702 33.43167 34995 ft 530 kts 18°
2026-04-20 09:33 -23.61762 33.45965 34996 ft 535 kts 17°
2026-04-20 09:34 -23.54782 33.48778 34994 ft 533 kts 18°
2026-04-20 09:34 -23.44340 33.53010 34996 ft 534 kts 16°
2026-04-20 09:35 -23.37417 33.55813 34994 ft 529 kts 17°
2026-04-20 09:35 -23.30500 33.58611 34995 ft 531 kts 17°
2026-04-20 09:36 -23.23541 33.61319 34996 ft 532 kts 14°
2026-04-20 09:36 -23.16561 33.63889 34995 ft 531 kts 15°
2026-04-20 09:37 -23.10727 33.66055 34996 ft 533 kts 15°
2026-04-20 09:37 -23.03701 33.68671 34995 ft 534 kts 15°
2026-04-20 09:38 -22.95513 33.71722 34995 ft 535 kts 16°
2026-04-20 09:38 -22.88475 33.74352 34995 ft 536 kts 15°
2026-04-20 09:39 -22.82620 33.76532 34993 ft 533 kts 15°
2026-04-20 09:39 -22.75624 33.79141 34996 ft 533 kts 15°
2026-04-20 09:40 -22.68618 33.81742 34995 ft 532 kts 14°
2026-04-20 09:40 -22.61594 33.84344 34996 ft 532 kts 15°
2026-04-20 09:41 -22.54533 33.86959 34996 ft 535 kts 14°
2026-04-20 09:41 -22.47548 33.89540 35098 ft 520 kts 11°
2026-04-20 09:42 -22.44212 33.90767 35052 ft 504 kts 11°
2026-04-20 09:42 -22.40909 33.91990 35012 ft 486 kts 11°
2026-04-20 09:42 -22.37807 33.93133 34994 ft 471 kts 10°
2026-04-20 09:42 -22.34688 33.94280 34997 ft 472 kts 10°
2026-04-20 09:43 -22.28430 33.96579 34994 ft 473 kts 10°
2026-04-20 09:43 -22.22225 33.98856 34994 ft 473 kts 10°
2026-04-20 09:44 -22.16017 34.01132 34994 ft 473 kts 10°
2026-04-20 09:44 -22.09764 34.03403 34994 ft 473 kts 10°
2026-04-20 09:45 -22.03531 34.05648 34994 ft 473 kts 10°
2026-04-20 09:45 -21.97292 34.07894 34994 ft 473 kts 10°
2026-04-20 09:46 -21.91061 34.10136 34994 ft 473 kts 10°
2026-04-20 09:46 -21.84815 34.12382 34994 ft 473 kts 10°
2026-04-20 09:47 -21.78527 34.14647 34994 ft 473 kts 10°
2026-04-20 09:47 -21.72335 34.16879 34994 ft 473 kts 10°
2026-04-20 09:48 -21.66075 34.19128 34994 ft 473 kts 10°
2026-04-20 09:48 -21.59820 34.21373 34994 ft 472 kts 10°
2026-04-20 09:49 -21.53574 34.23611 34994 ft 473 kts 10°
2026-04-20 09:49 -21.47386 34.25828 34994 ft 473 kts 10°
2026-04-20 09:50 -21.41141 34.28062 34994 ft 473 kts 10°
2026-04-20 09:50 -21.34911 34.30289 34994 ft 473 kts 10°
2026-04-20 09:51 -21.28672 34.32517 34994 ft 473 kts 10°
2026-04-20 09:51 -21.22419 34.34755 34994 ft 473 kts 10°
2026-04-20 09:52 -21.16175 34.36981 34994 ft 473 kts 10°
2026-04-20 09:52 -21.09936 34.39201 34994 ft 473 kts 10°
2026-04-20 09:53 -21.03696 34.41419 34994 ft 472 kts 10°
2026-04-20 09:53 -20.97446 34.43640 34994 ft 473 kts 10°
2026-04-20 09:54 -20.91235 34.45913 34994 ft 473 kts 11°
2026-04-20 09:54 -20.84995 34.48216 34994 ft 473 kts 11°
2026-04-20 09:55 -20.78801 34.50496 34994 ft 473 kts 11°
2026-04-20 09:55 -20.72539 34.52797 34994 ft 473 kts 11°
2026-04-20 09:56 -20.66356 34.55067 34994 ft 473 kts 11°
2026-04-20 09:56 -20.60120 34.57364 34994 ft 473 kts 11°
2026-04-20 09:57 -20.53931 34.59640 34994 ft 473 kts 11°
2026-04-20 09:57 -20.47664 34.61939 34994 ft 473 kts 11°
2026-04-20 09:58 -20.41438 34.64220 34994 ft 473 kts 11°
2026-04-20 09:58 -20.35198 34.66504 34994 ft 474 kts 11°
2026-04-20 09:59 -20.28976 34.68779 34991 ft 472 kts 11°
2026-04-20 09:59 -20.22769 34.71048 34994 ft 473 kts 11°
2026-04-20 10:00 -20.16544 34.73321 34994 ft 473 kts 11°
2026-04-20 10:00 -20.10269 34.75610 34994 ft 473 kts 11°
2026-04-20 10:01 -20.04002 34.77901 34994 ft 473 kts 11°
2026-04-20 10:01 -19.97734 34.80184 34994 ft 473 kts 10°
2026-04-20 10:02 -19.91489 34.82454 34994 ft 473 kts 10°
2026-04-20 10:02 -19.85265 34.84715 34994 ft 473 kts 10°
2026-04-20 10:03 -19.79130 34.87312 34998 ft 486 kts 20°
2026-04-20 10:03 -19.76256 34.89325 34999 ft 500 kts 30°
2026-04-20 10:03 -19.73606 34.91797 34998 ft 505 kts 36°
2026-04-20 10:04 -19.68673 34.97153 34991 ft 507 kts 38°
2026-04-20 10:04 -19.63735 35.02454 34994 ft 505 kts 37°
2026-04-20 10:05 -19.58716 35.07657 34995 ft 510 kts 36°
2026-04-20 10:05 -19.53613 35.12907 34992 ft 515 kts 36°
2026-04-20 10:06 -19.48485 35.18198 34994 ft 514 kts 36°
2026-04-20 10:06 -19.43353 35.23479 34994 ft 513 kts 36°
2026-04-20 10:07 -19.38222 35.28742 34994 ft 517 kts 36°
2026-04-20 10:07 -19.33044 35.34051 34988 ft 514 kts 36°
2026-04-20 10:08 -19.27951 35.39264 34995 ft 507 kts 36°
2026-04-20 10:08 -19.22868 35.44464 34996 ft 512 kts 36°
2026-04-20 10:09 -19.17719 35.49727 34991 ft 517 kts 36°
2026-04-20 10:09 -19.12565 35.54993 34994 ft 517 kts 36°
2026-04-20 10:10 -19.07418 35.60259 34993 ft 510 kts 36°
2026-04-20 10:10 -19.02328 35.65443 34996 ft 515 kts 36°
2026-04-20 10:11 -18.97141 35.70718 34996 ft 517 kts 36°
2026-04-20 10:11 -18.91947 35.75999 34992 ft 517 kts 36°
2026-04-20 10:12 -18.86764 35.81260 34995 ft 513 kts 36°
2026-04-20 10:12 -18.81646 35.86444 34998 ft 514 kts 36°
2026-04-20 10:13 -18.76484 35.91669 34994 ft 510 kts 36°
2026-04-20 10:13 -18.71360 35.96851 34992 ft 512 kts 36°
2026-04-20 10:14 -18.66184 36.02086 34994 ft 515 kts 36°
2026-04-20 10:14 -18.61031 36.07306 34998 ft 515 kts 36°
2026-04-20 10:15 -18.55877 36.12524 34991 ft 511 kts 36°
2026-04-20 10:15 -18.50750 36.17714 34994 ft 509 kts 36°
2026-04-20 10:16 -18.45623 36.22886 34993 ft 512 kts 36°
2026-04-20 10:16 -18.40461 36.28082 34993 ft 514 kts 36°
2026-04-20 10:17 -18.35315 36.33256 34991 ft 516 kts 36°
2026-04-20 10:17 -18.30135 36.38465 34992 ft 515 kts 36°
2026-04-20 10:18 -18.25906 36.42876 34995 ft 517 kts 38°
2026-04-20 10:18 -18.20842 36.48254 34992 ft 515 kts 37°
2026-04-20 10:19 -18.15764 36.53613 34993 ft 517 kts 37°
2026-04-20 10:19 -18.10675 36.58968 34994 ft 517 kts 37°
2026-04-20 10:20 -18.05597 36.64322 34996 ft 518 kts 38°
2026-04-20 10:20 -18.00508 36.69698 34995 ft 517 kts 37°
2026-04-20 10:21 -17.95410 36.75050 34997 ft 520 kts 37°
2026-04-20 10:21 -17.90319 36.80389 34993 ft 521 kts 37°
2026-04-20 10:22 -17.85153 36.85803 34993 ft 520 kts 37°
2026-04-20 10:22 -17.79861 36.90848 34999 ft 510 kts 32°
2026-04-20 10:23 -17.74360 36.95514 34996 ft 511 kts 31°
2026-04-20 10:23 -17.68849 37.00242 34992 ft 513 kts 32°
2026-04-20 10:24 -17.63327 37.05062 34995 ft 511 kts 32°
2026-04-20 10:24 -17.57896 37.09813 34992 ft 512 kts 32°
2026-04-20 10:25 -17.52429 37.14619 34995 ft 513 kts 32°
2026-04-20 10:25 -17.46924 37.19431 34996 ft 509 kts 32°
2026-04-20 10:26 -17.41525 37.24138 34991 ft 510 kts 32°
2026-04-20 10:26 -17.36051 37.28907 34992 ft 514 kts 32°
2026-04-20 10:27 -17.30533 37.33729 34997 ft 515 kts 32°
2026-04-20 10:27 -17.25176 37.38601 34996 ft 512 kts 33°
2026-04-20 10:28 -17.19832 37.43476 34994 ft 509 kts 33°
2026-04-20 10:28 -17.14465 37.48352 34994 ft 512 kts 33°
2026-04-20 10:29 -17.09067 37.53253 34993 ft 516 kts 33°
2026-04-20 10:29 -17.03671 37.58150 34999 ft 510 kts 33°
2026-04-20 10:30 -16.98325 37.63013 34994 ft 509 kts 33°
2026-04-20 10:30 -16.92955 37.67884 34994 ft 514 kts 33°
2026-04-20 10:31 -16.87591 37.72740 34995 ft 515 kts 33°
2026-04-20 10:31 -16.82180 37.77634 34994 ft 514 kts 33°
2026-04-20 10:32 -16.76785 37.82512 34993 ft 510 kts 33°
2026-04-20 10:32 -16.71428 37.87349 34994 ft 510 kts 33°
2026-04-20 10:33 -16.66050 37.92205 34994 ft 514 kts 33°
2026-04-20 10:33 -16.60647 37.97092 34993 ft 514 kts 33°
2026-04-20 10:34 -16.55237 38.01965 34989 ft 513 kts 33°
2026-04-20 10:35 -16.47152 38.09238 34990 ft 512 kts 33°
2026-04-20 10:35 -16.41743 38.14099 34995 ft 514 kts 33°
2026-04-20 10:36 -16.36247 38.18912 34995 ft 511 kts 31°
2026-04-20 10:36 -16.30816 38.23591 34997 ft 510 kts 32°
2026-04-20 10:37 -16.25354 38.28311 34993 ft 511 kts 32°
2026-04-20 10:37 -16.19868 38.33055 34993 ft 513 kts 32°
2026-04-20 10:38 -16.14397 38.37786 34991 ft 511 kts 32°
2026-04-20 10:38 -16.08925 38.42533 34992 ft 513 kts 32°
2026-04-20 10:39 -16.03441 38.47277 34995 ft 512 kts 32°
2026-04-20 10:39 -15.97981 38.51993 34997 ft 510 kts 32°
2026-04-20 10:40 -15.92534 38.56693 34994 ft 508 kts 32°
2026-04-20 10:40 -15.87078 38.61396 34993 ft 509 kts 32°
2026-04-20 10:41 -15.81624 38.66104 34996 ft 512 kts 32°
2026-04-20 10:41 -15.76127 38.70842 34992 ft 514 kts 32°
2026-04-20 10:42 -15.70584 38.75606 34991 ft 510 kts 31°
2026-04-20 10:42 -15.65175 38.80252 34995 ft 509 kts 32°
2026-04-20 10:43 -15.59667 38.84982 34991 ft 512 kts 32°
2026-04-20 10:43 -15.54267 38.89743 34992 ft 514 kts 33°
2026-04-20 10:44 -15.48834 38.94588 34992 ft 511 kts 33°
2026-04-20 10:44 -15.43445 38.99374 34993 ft 508 kts 32°
2026-04-20 10:45 -15.38067 39.04147 34996 ft 511 kts 33°
2026-04-20 10:45 -15.32650 39.08953 34997 ft 515 kts 33°
2026-04-20 10:46 -15.27215 39.13794 34987 ft 514 kts 33°
2026-04-20 10:46 -15.21803 39.18589 34992 ft 511 kts 32°
2026-04-20 10:47 -15.16383 39.23382 34994 ft 513 kts 33°
2026-04-20 10:47 -15.11033 39.28246 34996 ft 520 kts 37°
2026-04-20 10:48 -15.06572 39.34311 34999 ft 537 kts 55°
2026-04-20 10:48 -15.03537 39.41454 34991 ft 545 kts 62°
2026-04-20 10:49 -15.00629 39.48667 34997 ft 542 kts 60°
2026-04-20 10:49 -14.97505 39.55810 34992 ft 539 kts 59°
2026-04-20 10:50 -14.94374 39.62847 34994 ft 540 kts 59°
2026-04-20 10:50 -14.91262 39.69911 34998 ft 541 kts 59°
2026-04-20 10:51 -14.88150 39.76943 34993 ft 534 kts 59°
2026-04-20 10:51 -14.85066 39.83927 34994 ft 536 kts 59°
2026-04-20 10:52 -14.81916 39.91021 34995 ft 540 kts 59°
2026-04-20 10:52 -14.78796 39.98029 34994 ft 543 kts 59°
2026-04-20 10:53 -14.75645 40.05105 34993 ft 538 kts 59°
2026-04-20 10:53 -14.72535 40.12113 34990 ft 535 kts 59°
2026-04-20 10:54 -14.69431 40.19139 34993 ft 541 kts 59°
2026-04-20 10:54 -14.66297 40.26227 34997 ft 544 kts 59°
2026-04-20 10:55 -14.63168 40.33300 34993 ft 539 kts 59°
2026-04-20 10:55 -14.60061 40.40317 34992 ft 538 kts 59°
2026-04-20 10:56 -14.57486 40.46191 34992 ft 540 kts 59°
2026-04-20 10:56 -14.53842 40.54424 34994 ft 542 kts 59°
2026-04-20 10:57 -14.51238 40.60287 34991 ft 540 kts 59°
2026-04-20 10:57 -14.47470 40.68322 34990 ft 526 kts 50°
2026-04-20 10:58 -14.43445 40.72824 34997 ft 504 kts 28°
2026-04-20 10:58 -14.40424 40.74639 34982 ft 487 kts 15°
2026-04-20 10:58 -14.37323 40.75839 35006 ft 479 kts 10°
2026-04-20 10:59 -14.30934 40.78056 34992 ft 485 kts 12°
2026-04-20 10:59 -14.24573 40.80608 34995 ft 491 kts 14°
2026-04-20 11:00 -14.18230 40.83340 34994 ft 492 kts 14°
2026-04-20 11:00 -14.11938 40.86035 34993 ft 490 kts 14°
2026-04-20 11:01 -14.05634 40.88725 34992 ft 490 kts 14°
2026-04-20 11:01 -13.99376 40.91384 34993 ft 483 kts 14°
2026-04-20 11:02 -13.93160 40.94024 34993 ft 485 kts 14°
2026-04-20 11:02 -13.86890 40.96684 34994 ft 488 kts 14°
2026-04-20 11:03 -13.80603 40.99348 34994 ft 490 kts 14°
2026-04-20 11:03 -13.74306 41.02011 34992 ft 488 kts 14°
2026-04-20 11:04 -13.68012 41.04672 34995 ft 489 kts 14°
2026-04-20 11:04 -13.61719 41.07331 34995 ft 488 kts 14°
2026-04-20 11:05 -13.55370 41.10013 34994 ft 490 kts 14°
2026-04-20 11:05 -13.49089 41.12668 34993 ft 489 kts 14°
2026-04-20 11:06 -13.42776 41.15340 34992 ft 488 kts 14°
2026-04-20 11:06 -13.36484 41.17998 35000 ft 491 kts 14°
2026-04-20 11:07 -13.30171 41.20659 34996 ft 490 kts 14°
2026-04-20 11:07 -13.23920 41.23296 34996 ft 489 kts 14°
2026-04-20 11:08 -13.17605 41.25956 34994 ft 490 kts 14°
2026-04-20 11:08 -13.11260 41.28627 34993 ft 490 kts 14°
2026-04-20 11:09 -13.04984 41.31269 34992 ft 482 kts 14°
2026-04-20 11:09 -12.98820 41.33861 34995 ft 479 kts 14°
2026-04-20 11:10 -12.92621 41.36469 34994 ft 485 kts 14°
2026-04-20 11:10 -12.86335 41.39109 34993 ft 490 kts 14°
2026-04-20 11:11 -12.80016 41.41763 34992 ft 490 kts 14°
2026-04-20 11:11 -12.73719 41.44404 34993 ft 488 kts 14°
2026-04-20 11:12 -12.67439 41.47040 34995 ft 488 kts 14°
2026-04-20 11:12 -12.61147 41.49679 34993 ft 490 kts 14°
2026-04-20 11:13 -12.54787 41.52344 34991 ft 492 kts 14°
2026-04-20 11:13 -12.48458 41.54995 34988 ft 489 kts 14°
2026-04-20 11:14 -12.42219 41.57606 34994 ft 486 kts 14°
2026-04-20 11:14 -12.35957 41.60227 34993 ft 489 kts 14°
2026-04-20 11:15 -12.29617 41.62878 34994 ft 489 kts 14°
2026-04-20 11:15 -12.23303 41.65518 34994 ft 489 kts 14°
2026-04-20 11:16 -12.16997 41.68152 34993 ft 489 kts 14°
2026-04-20 11:16 -12.10723 41.70774 34996 ft 486 kts 14°
2026-04-20 11:17 -12.04457 41.73390 34995 ft 487 kts 14°
2026-04-20 11:17 -11.98117 41.76034 34993 ft 490 kts 14°
2026-04-20 11:18 -11.91803 41.78666 34993 ft 492 kts 14°
2026-04-20 11:18 -11.85776 41.82093 34992 ft 515 kts 34°
2026-04-20 11:18 -11.83372 41.84945 34994 ft 532 kts 50°
2026-04-20 11:19 -11.81696 41.88355 34993 ft 547 kts 65°
2026-04-20 11:19 -11.80825 41.92171 34996 ft 557 kts 79°
2026-04-20 11:19 -11.80559 41.96124 34995 ft 559 kts 83°
2026-04-20 11:20 -11.79832 42.03910 34992 ft 551 kts 77°
2026-04-20 11:20 -11.78367 42.11563 34995 ft 549 kts 71°
2026-04-20 11:21 -11.76509 42.19181 34994 ft 551 kts 71°
2026-04-20 11:21 -11.74720 42.26781 34995 ft 554 kts 72°
2026-04-20 11:22 -11.72958 42.34467 34997 ft 558 kts 72°
2026-04-20 11:22 -11.71191 42.42192 34992 ft 559 kts 72°
2026-04-20 11:23 -11.69443 42.49827 34990 ft 552 kts 72°
2026-04-20 11:23 -11.67693 42.57467 34993 ft 551 kts 72°
2026-04-20 11:24 -11.65954 42.65040 34996 ft 550 kts 72°
2026-04-20 11:24 -11.64211 42.72630 35000 ft 553 kts 71°
2026-04-20 11:25 -11.62445 42.80313 34991 ft 549 kts 72°
2026-04-20 11:25 -11.60695 42.87910 34994 ft 552 kts 72°
2026-04-20 11:26 -11.58939 42.95529 34994 ft 554 kts 72°
2026-04-20 11:26 -11.57167 43.03255 34995 ft 551 kts 71°
2026-04-20 11:27 -11.55425 43.10775 34999 ft 549 kts 71°
2026-04-20 11:27 -11.53649 43.18432 34991 ft 552 kts 71°
2026-04-20 11:28 -11.52494 43.24815 34993 ft 560 kts 84°
2026-04-20 11:28 -11.53084 43.30084 34906 ft 563 kts 104°
2026-04-20 11:28 -11.53939 43.32599 34761 ft 557 kts 112°
2026-04-20 11:28 -11.55703 43.36072 34253 ft 553 kts 122°
2026-04-20 11:29 -11.57861 43.39334 33531 ft 555 kts 127°
2026-04-20 11:29 -11.60937 43.43558 32525 ft 559 kts 128°
2026-04-20 11:29 -11.62472 43.45684 32067 ft 559 kts 128°
2026-04-20 11:29 -11.64475 43.48562 31482 ft 560 kts 126°
2026-04-20 11:30 -11.66756 43.51981 30825 ft 555 kts 123°
2026-04-20 11:30 -11.68822 43.55216 31018 ft 518 kts 122°
2026-04-20 11:30 -11.70705 43.58235 30858 ft 490 kts 122°
2026-04-20 11:30 -11.72467 43.61064 30221 ft 475 kts 122°
2026-04-20 11:31 -11.74239 43.63905 29186 ft 471 kts 122°
2026-04-20 11:31 -11.76015 43.66746 28160 ft 466 kts 122°
2026-04-20 11:31 -11.77749 43.69519 27240 ft 459 kts 122°
2026-04-20 11:31 -11.79447 43.72234 26314 ft 452 kts 122°
2026-04-20 11:32 -11.81131 43.74925 25370 ft 446 kts 122°
2026-04-20 11:32 -11.82788 43.77574 24419 ft 440 kts 122°
2026-04-20 11:32 -11.84429 43.80198 23489 ft 434 kts 122°
2026-04-20 11:32 -11.86056 43.82800 22561 ft 427 kts 122°
2026-04-20 11:33 -11.87646 43.85343 21644 ft 422 kts 122°
2026-04-20 11:33 -11.89219 43.87861 20729 ft 416 kts 122°
2026-04-20 11:33 -11.90777 43.90354 19817 ft 410 kts 122°
2026-04-20 11:33 -11.92281 43.92760 18932 ft 405 kts 122°
2026-04-20 11:34 -11.93785 43.95168 18040 ft 400 kts 122°
2026-04-20 11:34 -11.95285 43.97571 17139 ft 394 kts 122°
2026-04-20 11:34 -11.96754 43.99924 16255 ft 389 kts 122°
2026-04-20 11:34 -11.98201 44.02243 15346 ft 385 kts 122°
2026-04-20 11:35 -11.99664 44.04588 14142 ft 388 kts 122°
2026-04-20 11:35 -12.01109 44.06904 13301 ft 382 kts 122°
2026-04-20 11:35 -12.02494 44.09124 12619 ft 371 kts 122°
2026-04-20 11:35 -12.03867 44.11326 11777 ft 366 kts 122°
2026-04-20 11:36 -12.05221 44.13498 10929 ft 361 kts 122°
2026-04-20 11:36 -12.06577 44.15674 10295 ft 365 kts 122°
2026-04-20 11:36 -12.07928 44.17842 10075 ft 355 kts 123°
2026-04-20 11:36 -12.09239 44.19947 10005 ft 342 kts 123°
2026-04-20 11:37 -12.10480 44.21939 9935 ft 330 kts 123°
2026-04-20 11:37 -12.12832 44.25717 9641 ft 297 kts 123°
2026-04-20 11:37 -12.13897 44.27427 9496 ft 279 kts 123°
2026-04-20 11:38 -12.14912 44.29058 9365 ft 262 kts 123°
2026-04-20 11:38 -12.15856 44.30575 9143 ft 249 kts 123°
2026-04-20 11:38 -12.16779 44.32058 8832 ft 241 kts 123°
2026-04-20 11:38 -12.17664 44.33482 8460 ft 235 kts 123°
2026-04-20 11:39 -12.18529 44.34872 8045 ft 232 kts 123°
2026-04-20 11:39 -12.19389 44.36254 7639 ft 231 kts 123°
2026-04-20 11:39 -12.20254 44.37647 7351 ft 230 kts 123°
2026-04-20 11:39 -12.21114 44.39029 7075 ft 228 kts 123°
2026-04-20 11:40 -12.21947 44.40370 6796 ft 226 kts 123°
2026-04-20 11:40 -12.22797 44.41736 6508 ft 225 kts 123°
2026-04-20 11:40 -12.23628 44.43074 6224 ft 224 kts 123°
2026-04-20 11:40 -12.24462 44.44416 5938 ft 223 kts 123°
2026-04-20 11:41 -12.25298 44.45762 5652 ft 222 kts 123°
2026-04-20 11:41 -12.26129 44.47100 5356 ft 221 kts 123°
2026-04-20 11:41 -12.26940 44.48406 5056 ft 221 kts 123°
2026-04-20 11:41 -12.27771 44.49744 4786 ft 219 kts 123°
2026-04-20 11:42 -12.28578 44.51044 4554 ft 216 kts 123°
2026-04-20 11:42 -12.29367 44.52314 4634 ft 214 kts 123°
2026-04-20 11:42 -12.30218 44.53686 4666 ft 234 kts 123°
2026-04-20 11:42 -12.31082 44.55079 4657 ft 232 kts 124°
2026-04-20 11:43 -12.31940 44.56461 4653 ft 226 kts 124°
2026-04-20 11:43 -12.32776 44.57808 4652 ft 221 kts 124°
2026-04-20 11:43 -12.33592 44.59123 4658 ft 217 kts 124°
2026-04-20 11:43 -12.34396 44.60418 4654 ft 214 kts 124°
2026-04-20 11:44 -12.35189 44.61697 4659 ft 215 kts 124°
2026-04-20 11:44 -12.35992 44.62992 4659 ft 217 kts 124°
2026-04-20 11:44 -12.36816 44.64320 4663 ft 221 kts 124°
2026-04-20 11:44 -12.37646 44.65661 4663 ft 225 kts 124°
2026-04-20 11:45 -12.38475 44.66998 4658 ft 227 kts 124°
2026-04-20 11:45 -12.39326 44.68370 4657 ft 227 kts 124°
2026-04-20 11:45 -12.40164 44.69723 4656 ft 225 kts 123°
2026-04-20 11:45 -12.40998 44.71068 4653 ft 220 kts 123°
2026-04-20 11:46 -12.41817 44.72391 4655 ft 218 kts 123°
2026-04-20 11:46 -12.42619 44.73685 4661 ft 220 kts 123°
2026-04-20 11:46 -12.43437 44.75007 4660 ft 221 kts 123°
2026-04-20 11:46 -12.44261 44.76338 4657 ft 220 kts 123°
2026-04-20 11:47 -12.45078 44.77657 4657 ft 222 kts 124°
2026-04-20 11:47 -12.45912 44.79004 4672 ft 227 kts 124°
2026-04-20 11:47 -12.46782 44.80408 4665 ft 236 kts 124°
2026-04-20 11:47 -12.47663 44.81824 4657 ft 238 kts 124°
2026-04-20 11:48 -12.48561 44.83271 4649 ft 240 kts 124°
2026-04-20 11:48 -12.49443 44.84693 4655 ft 237 kts 124°
2026-04-20 11:48 -12.50321 44.86112 4655 ft 233 kts 124°
2026-04-20 11:48 -12.51177 44.87497 4653 ft 228 kts 124°
2026-04-20 11:49 -12.52020 44.88861 4657 ft 226 kts 124°
2026-04-20 11:49 -12.52869 44.90235 4662 ft 228 kts 124°
2026-04-20 11:49 -12.53726 44.91622 4659 ft 229 kts 124°
2026-04-20 11:49 -12.54573 44.92995 4658 ft 228 kts 124°
2026-04-20 11:50 -12.55415 44.94359 4658 ft 229 kts 124°
2026-04-20 11:50 -12.56266 44.95738 4658 ft 229 kts 124°
2026-04-20 11:50 -12.57117 44.97117 4661 ft 229 kts 124°
2026-04-20 11:50 -12.57972 44.98503 4658 ft 229 kts 124°
2026-04-20 11:51 -12.58820 44.99878 4655 ft 227 kts 124°
2026-04-20 11:51 -12.59667 45.01251 4655 ft 227 kts 124°
2026-04-20 11:51 -12.60509 45.02615 4661 ft 230 kts 123°
2026-04-20 11:51 -12.61383 45.04030 4665 ft 237 kts 123°
2026-04-20 11:52 -12.62278 45.05481 4659 ft 237 kts 123°
2026-04-20 11:52 -12.63126 45.06914 4658 ft 235 kts 120°
2026-04-20 11:52 -12.63670 45.08502 4575 ft 237 kts 102°
2026-04-20 11:52 -12.63486 45.10225 4260 ft 259 kts 73°
2026-04-20 11:53 -12.62532 45.11819 3953 ft 264 kts 52°
2026-04-20 11:53 -12.61582 45.13394 3641 ft 259 kts 69°
2026-04-20 11:53 -12.61417 45.15191 3447 ft 247 kts 95°
2026-04-20 11:53 -12.61882 45.16827 3353 ft 233 kts 117°
2026-04-20 11:54 -12.62938 45.17970 3272 ft 215 kts 144°
2026-04-20 11:54 -12.64182 45.18706 3167 ft 203 kts 153°
2026-04-20 11:54 -12.65414 45.19318 3047 ft 190 kts 156°
2026-04-20 11:54 -12.66590 45.19825 2968 ft 174 kts 158°
2026-04-20 11:55 -12.67650 45.20332 2943 ft 165 kts 156°
2026-04-20 11:55 -12.68696 45.20906 2995 ft 176 kts 153°
2026-04-20 11:55 -12.69781 45.21548 2963 ft 180 kts 151°
2026-04-20 11:55 -12.70851 45.22193 2908 ft 179 kts 152°
2026-04-20 11:56 -12.71961 45.22804 2603 ft 179 kts 153°
2026-04-20 11:56 -12.73045 45.23436 2281 ft 177 kts 151°
2026-04-20 11:56 -12.74107 45.24057 1986 ft 172 kts 151°
2026-04-20 11:56 -12.75085 45.24685 1647 ft 162 kts 149°
2026-04-20 11:57 -12.76055 45.25299 1199 ft 166 kts 151°
2026-04-20 11:57 -12.77067 45.25871 870 ft 162 kts 152°
2026-04-20 11:57 -12.78046 45.26438 670 ft 162 kts 152°
2026-04-20 11:57 -12.79033 45.26996 426 ft 163 kts 152°
2026-04-20 11:58 -12.79986 45.27616 149 ft 156 kts 146°
2026-04-20 11:58 -12.80798 45.28140 37 ft 118 kts 154°
2026-04-20 11:58 -12.81651 45.28650 109 ft 166 kts 148°
2026-04-20 11:58 -12.82719 45.29280 737 ft 192 kts 151°
2026-04-20 11:59 -12.83531 45.29742 1434 ft 198 kts 152°
2026-04-20 11:59 -12.84806 45.30416 2563 ft 218 kts 154°
2026-04-20 11:59 -12.86826 45.31469 2932 ft 264 kts 154°
2026-04-20 11:59 -12.87906 45.32032 2954 ft 262 kts 154°
2026-04-20 12:00 -12.89521 45.32874 2929 ft 260 kts 154°
2026-04-20 12:00 -12.91636 45.33974 2945 ft 252 kts 154°
2026-04-20 12:00 -12.92667 45.34512 2947 ft 246 kts 154°
2026-04-20 12:00 -12.94129 45.35327 2926 ft 234 kts 147°
2026-04-20 12:01 -12.95334 45.37090 2920 ft 228 kts 115°
2026-04-20 12:01 -12.95880 45.38650 2940 ft 239 kts 111°
2026-04-20 12:01 -12.96243 45.39743 2941 ft 244 kts 110°
2026-04-20 12:01 -12.96776 45.41409 2936 ft 246 kts 109°
2026-04-20 12:02 -12.97307 45.43068 2937 ft 245 kts 109°
2026-04-20 12:02 -12.97831 45.44717 2946 ft 243 kts 109°
2026-04-20 12:02 -12.98359 45.46370 2941 ft 242 kts 109°
2026-04-20 12:02 -12.98885 45.48020 2938 ft 238 kts 109°
2026-04-20 12:03 -12.99393 45.49616 2938 ft 234 kts 109°
2026-04-20 12:03 -12.99893 45.51195 2939 ft 233 kts 109°
2026-04-20 12:03 -13.00396 45.52779 2940 ft 234 kts 109°
2026-04-20 12:03 -13.00927 45.54373 2939 ft 237 kts 114°
2026-04-20 12:04 -13.01879 45.55689 2941 ft 232 kts 136°
2026-04-20 12:04 -13.03230 45.56611 2958 ft 233 kts 153°
2026-04-20 12:04 -13.04779 45.57103 2950 ft 232 kts 168°
2026-04-20 12:04 -13.06370 45.57263 2945 ft 230 kts 178°
2026-04-20 12:05 -13.07972 45.57135 2938 ft 227 kts 189°
2026-04-20 12:05 -13.09469 45.56689 2941 ft 225 kts 200°
2026-04-20 12:05 -13.10857 45.55931 2940 ft 226 kts 212°
2026-04-20 12:05 -13.12063 45.54898 2940 ft 227 kts 223°
2026-04-20 12:06 -13.13044 45.53625 2942 ft 229 kts 235°
2026-04-20 12:06 -13.13755 45.52176 2941 ft 230 kts 246°
2026-04-20 12:06 -13.14192 45.50567 2973 ft 239 kts 256°
2026-04-20 12:06 -13.14437 45.48851 2942 ft 242 kts 263°
2026-04-20 12:07 -13.14397 45.47137 2893 ft 242 kts 279°
2026-04-20 12:07 -13.13627 45.45642 2898 ft 238 kts 308°
2026-04-20 12:07 -13.12344 45.44671 2963 ft 223 kts 327°
2026-04-20 12:07 -13.11033 45.43903 2959 ft 213 kts 330°
2026-04-20 12:08 -13.09723 45.43244 2940 ft 207 kts 333°
2026-04-20 12:08 -13.08399 45.42653 2937 ft 204 kts 335°
2026-04-20 12:08 -13.07088 45.42093 2940 ft 206 kts 336°
2026-04-20 12:08 -13.05786 45.41524 2944 ft 207 kts 335°
2026-04-20 12:09 -13.04465 45.40932 2940 ft 206 kts 335°
2026-04-20 12:09 -13.03156 45.40336 2941 ft 206 kts 335°
2026-04-20 12:09 -13.01824 45.39724 2941 ft 206 kts 334°
2026-04-20 12:09 -13.00523 45.39125 2942 ft 206 kts 334°
2026-04-20 12:10 -12.99243 45.38534 2972 ft 201 kts 334°
2026-04-20 12:10 -12.98003 45.37963 2938 ft 184 kts 334°
2026-04-20 12:10 -12.96887 45.37447 2917 ft 169 kts 334°
2026-04-20 12:10 -12.95876 45.36980 2902 ft 156 kts 334°
2026-04-20 12:11 -12.94844 45.36479 2893 ft 177 kts 333°
2026-04-20 12:11 -12.93739 45.35900 2854 ft 179 kts 331°
2026-04-20 12:11 -12.92632 45.35262 2537 ft 184 kts 328°
2026-04-20 12:11 -12.91539 45.34549 2303 ft 181 kts 327°
2026-04-20 12:12 -12.90495 45.33918 2094 ft 172 kts 327°
2026-04-20 12:12 -12.89488 45.33284 1796 ft 170 kts 328°
2026-04-20 12:12 -12.88454 45.32663 1433 ft 173 kts 328°
2026-04-20 12:12 -12.87467 45.32033 1264 ft 160 kts 330°
2026-04-20 12:13 -12.86528 45.31503 1090 ft 150 kts 331°
2026-04-20 12:13 -12.85604 45.31021 829 ft 147 kts 330°
2026-04-20 12:13 -12.84722 45.30456 515 ft 147 kts 327°
2026-04-20 12:13 -12.83830 45.29924 356 ft 156 kts 328°
2026-04-20 12:14 -12.82878 45.29374 262 ft 157 kts 330°
2026-04-20 12:14 -12.81911 45.28796 127 ft 162 kts 328°
2026-04-20 12:14 -12.80996 45.28278 39 ft 136 kts 328°
2026-04-20 12:14 -12.80276 45.27817 37 ft 104 kts 330°
2026-04-20 12:15 -12.79868 45.27572 23 ft 38 kts 327°
2026-04-20 12:15 -12.79772 45.27496 13 ft 8 kts 281°
2026-04-20 12:15 -12.79776 45.27483 13 ft 2 kts 232°
2026-04-20 12:15 -12.79804 45.27483 13 ft 7 kts 143°
2026-04-20 12:16 -12.79881 45.27578 25 ft 40 kts 142°
2026-04-20 12:16 -12.80153 45.27745 37 ft 50 kts 150°
2026-04-20 12:16 -12.80369 45.27875 37 ft 8 kts 149°
2026-04-20 12:16 -12.80400 45.27894 37 ft 4 kts 149°
2026-04-20 12:17 -12.80450 45.27925 37 ft 11 kts 149°
2026-04-20 12:17 -12.80493 45.27951 37 ft 5 kts 149°
2026-04-20 12:17 -12.80507 45.27960 37 ft 0 kts 145°
2026-04-20 12:17 -12.80519 45.27974 37 ft 3 kts 117°
2026-04-20 12:18 -12.80505 45.28026 37 ft 13 kts 57°
2026-04-20 12:18 -12.80465 45.28090 37 ft 9 kts 59°
2026-04-20 12:18 -12.80440 45.28127 37 ft 2 kts 37°
2026-04-20 12:18 -12.80416 45.28127 37 ft 0 kts 331°
2026-04-20 12:19 -12.80394 45.28132 37 ft 5 kts 43°
2026-04-20 12:19 -12.80382 45.28157 37 ft 6 kts 64°
2026-04-20 12:19 -12.80376 45.28168 37 ft 0 kts 61°
2026-04-20 12:19 -12.80374 45.28171 37 ft 0 kts 61°